To NAV CANADA Home Page Login to a new session Search on AWWS site Feedback and Comments Disclaimer Vers la page française équivalente Tips FAQ What's new on the site To the Forecasts and Observations / NOTAM section To "File a Flight Plan" website Publications and other links Update of the User's profile FIC Telephone Numbers My Weather Data Folder Route Weather Data Regional Weather Data Local Weather Data To the Forecasts and Observations / NOTAM section
Request Generated 05/25/2015 at 09:03:37 UTC . Weather information available at that time is displayed.

METAR/TAF

CALGARY/SPRINGBANK/AB    (show WxCam)

METAR CYBW 250900Z AUTO 15007KT 9SM CLR 07/02 A2990 RMK SLP127=
METAR CYBW 250800Z AUTO 16009KT 9SM CLR 09/02 A2990 RMK SLP125
DENSITY ALT 4200FT=
METAR CYBW 250700Z AUTO 15008KT 9SM CLR 11/03 A2992 RMK SLP128
DENSITY ALT 4300FT=

*** REMARK        : Forecast period has ended; this was the last TAF issued
*** REMARQUE : La période de prévision est échue; ceci était le dernier TAF qui a été émis
TAF CYBW 242338Z 2500/2504 15012G22KT P6SM FEW080 SCT300
RMK FCST BASED ON AUTO OBS. NXT FCST WILL BE ISSUED AT 251145Z=
Your time UTC time
Weather data provided by Environment Canada and NAV CANADA